www.pogodaiklimat.ru

ПОГОДА в Рашен-Мишене, AK

  • Прогноз погоды в Рашен-Мишене
  • Монитор погоды в Рашен-Мишене
  • Климат в Рашен-Мишене

АРХИВ ПОГОДЫ в Рашен-Мишене

Время (UTC), дата Ветер
(напр.,м/с)
 
Видим.   Явления Облачность Т
(С)
Тd
(С)
f
(%)
Тe
(С)
Тes
(С)
Комфортность

P
(гПа)

Po
(гПа)
Тmin
(С)
Tmax
(С)
R
(мм)
SD
(см)
18:56 14.06 Ю  16 км    ясно  +20.6  +10.0  51  +23  +30  комфорт  1010.7  1008.5         
19:56 14.06 нст  16 км    ясно  +21.1  +10.0  49  +23  +34  комфорт  1010.5  1008.1         
20:56 14.06 нст  16 км    ясно  +21.7  +8.9  44  +23  +36  комфорт  1010.1  1007.8         
21:56 14.06 нст  16 км    ясно  +21.7  +9.4  45  +23  +38  комфорт  1009.7  1007.1         
22:56 14.06 ЮВ  14 км    ясно  +22.2  +9.4  44  +24  +35  комфорт  1009.1  1006.8  +17.8  +22.2     
23:56 14.06 ЮВ  16 км    ясно  +22.8  +10.6  46  +25  +36  комфорт  1008.6  1006.1         
00:56 15.06 Ю  16 км    2/0 3600 м
[средняя] 
+23.3  +10.6  45  +25  +32  комфорт  1007.8  1005.4         
01:56 15.06 Ю  16 км    ясно  +22.8  +10.6  46  +25  +31  комфорт  1007.2  1004.7         
02:56 15.06 Ю  16 км    ясно  +22.8  +10.6  46  +25  +30  комфорт  1006.7  1004.4         
03:56 15.06   16 км    10/8 1800 м
[средняя] 
+21.1  +11.7  55  +23  +23  комфорт  1007.0  1004.7         
04:56 15.06 З  16 км  слабый дождь  10/2 1800 м
[средняя] 
+16.1  +13.3  83  +16  +16    1007.2  1004.7  +15.6  +23.9  2.3   
05:56 15.06 СЗ  16 км    10/0 2700 м
[средняя] 
+15.6  +13.3  86  +15  +15    1007.1  1004.7         
06:56 15.06 З  16 км  слабый дождь  8/0 2700 м
[средняя] 
+15.0  +13.3  90  +15  +15    1007.5  1005.1         
07:56 15.06   16 км    ясно  +13.9  +13.3  96  +13  +13    1007.7  1005.4         
08:56 15.06   16 км    ясно  +12.8  +12.2  96  +12  +12    1007.9  1005.4         
09:56 15.06   16 км    ясно  +12.8  +11.1  89  +12  +12    1007.4  1005.1         
10:56 15.06 ЮЗ  16 км    ясно  +12.8  +11.1  89  +12  +12    1007.0  1004.4  +12.2  +16.7     
11:56 15.06 ЮЗ  16 км    10/10 1500 м  +13.3  +9.4  77  +12  +12    1007.0  1004.7         
12:56 15.06 З  16 км    10/10 1500 м  +12.8  +8.9  77  +12  +12    1006.8  1004.4         
13:56 15.06   16 км    10/10 1380 м  +12.8  +9.4  80  +12  +12    1006.7  1004.4         
14:56 15.06 Ю  16 км    10/10 1320 м  +13.3  +9.4  77  +12  +12    1006.7  1004.4         
15:56 15.06 Ю  16 км    10/10 1320 м  +12.8  +8.9  77  +11  +11    1006.8  1004.4         
16:56 15.06 Ю  16 км    10/10 1320 м  +13.3  +8.3  72  +12  +12    1006.8  1004.4  +12.8  +13.3     
17:56 15.06 Ю  16 км    10/10 1440 м  +13.3  +8.3  72  +12  +12    1007.0  1004.7         
18:56 15.06 Ю  16 км    10/10 1500 м  +14.4  +8.9  70  +13  +13    1007.0  1004.4         
19:56 15.06 Ю  16 км    10/10 1650 м  +13.9  +8.9  72  +13  +13    1007.0  1004.7         
20:56 15.06 Ю  16 км    10/10 1650 м  +13.9  +8.9  72  +12  +12    1007.2  1004.7         
21:39 15.06 ЮВ  16 км    10/10 570 м  +13.0  +9.0  77  +11  +11      1004.7         
21:56 15.06 нст  16 км    10/10 570 м  +12.8  +9.4  80  +11  +11    1007.3  1004.7         
22:22 15.06 нст  16 км    10/10 510 м  +12.0  +9.0  82  +11  +11      1004.7         
22:56 15.06 нст  16 км  слабый дождь  10/10 1950 м  +12.8  +9.4  80  +12  +12    1007.4  1005.1  +12.2  +14.4     
23:56 15.06 В  16 км  слабый дождь  10/5 480 м
[средняя] 
+13.3  +10.0  80  +12  +14    1007.2  1004.7         
00:56 16.06 нст  16 км    8/2 570 м
[средняя] 
+14.4  +10.0  75  +14  +19    1006.9  1004.4         
01:56 16.06 ЮВ  16 км    ясно  +16.1  +9.4  64  +16  +26    1006.7  1004.4         
02:56 16.06 нст  16 км    10/0 2100 м
[средняя] 
+16.1  +9.4  64  +16  +19    1006.6  1004.1         
03:56 16.06 нст  16 км    8/2 1140 м
[средняя] 
+17.2  +10.0  63  +18  +20    1006.7  1004.4         
04:56 16.06 В  16 км    8/5 1050 м
[средняя] 
+16.7  +10.0  65  +16  +17    1007.1  1004.7  +12.8  +17.2     
05:56 16.06 СВ  16 км    ясно  +15.6  +10.6  72  +15  +16    1007.5  1005.1         
06:56 16.06 СВ  16 км    10/0 2100 м
[средняя] 
+15.6  +10.6  72  +15  +15    1007.9  1005.4         
07:56 16.06 нст  16 км    ясно  +14.4  +10.6  78  +14  +14    1008.2  1005.8         
08:56 16.06 СВ  16 км    8/0 2100 м
[средняя] 
+13.9  +10.6  80  +13  +13    1008.5  1006.1         
09:56 16.06   16 км    10/0 2250 м
[средняя] 
+13.9  +10.0  77  +14  +14    1009.0  1006.4         
10:56 16.06 С  16 км    10/0 2250 м
[средняя] 
+13.3  +9.4  77  +12  +12    1008.8  1006.4  +12.8  +16.7     
11:56 16.06   16 км    8/0 2400 м
[средняя] 
+11.1  +9.4  89  +10  +10    1009.1  1006.8         
12:56 16.06   16 км    10/8 1800 м
[средняя] 
+11.1  +9.4  89  +10  +10    1009.2  1006.8         
13:56 16.06   16 км    10/8 1500 м
[средняя] 
+11.7  +9.4  86  +11  +11    1009.5  1007.1         
14:56 16.06 З  16 км    5/2 1500 м
[средняя] 
+12.8  +10.0  83  +12  +13    1009.4  1007.1         
15:56 16.06   16 км    ясно  +15.6  +10.0  69  +15  +18    1009.3  1007.1         

 

Местоположение метеостанции Russian Mission Airport: широта 61.7750 долгота -161.3194 высота над уровнем моря 16 м.

В архиве по умолчанию представлена погода в Рашен-Мишене за последние 1-2 суток. Обновление информации о фактической погоде в базе происходит ежечасно! Архивные данные за месяц целиком и за предыдущие месяцы Вы можете получить, выбрав интересующий диапазон дат из раскрывающегося списка и нажав кнопку "Ввод!".

Внимание! Архив погоды МЕТАР в базе сайта хранится не более 60 дней. Нет смысла пытаться выбрать более раннюю дату.

Внимание! Время в таблицах - всемирное. Для получения местного времени необходимо прибавить поправку, которая в Рашен-Мишене равна -9 ч.

Ветер - указаны скорость ветра в м/с и направление, откуда дует ветер: С - северный, СВ - северо-восточный, В - восточный, ЮВ - юго-восточный, Ю - южный, ЮЗ - юго-западный, З - западный, СЗ - северо-западный.
Видимость - горизонтальная дальность видимости в метрах или километрах. При видимости от 1 до 10 км при отсутствии осадков обычно наблюдается дымка, при ухудшении видимости до 1 км и менее - туман. В сухую погоду видимость может ухудшаться дымом, пылью или мглою.
Атмосферные явления - указаны явления, наблюдавшиеся в указанный момент времени.
Облачность - указаны через наклонную черту верхняя и нижняя облачность в баллах и высота нижней границы облаков в метрах. Внимание: облачность, как и прочие метеорологические величины в США измеряются автоматическими метеостанциями. Указанные значения в баллах носят условный характер и показывают процент времени, в течение которого, в среднем, лазерный луч высотомера отражался от облаков обратно.
T - Температура воздуха - температура, измеренная на высоте 2 м над землей.
Td - Температура точки росы - температура, при понижении до которой содержащийся в воздухе водяной пар достигнет насыщения.
f - Относительная влажность воздуха - влажноcть воздуха, измеренная на высоте 2 м над землей.
Te - Эффективная температура - температура, которую ощущает одетый по сезону человек в тени. Характеристика душности погоды. При расчете учитывается влияние влажности воздуха и скорости ветра на теплоощущения человека.
Tes - Эффективная температура на солнце - температура, которую ощущает человек, с поправкой на солнечный нагрев. Характеристика знойности погоды. Зависит от высоты солнца над горизонтом, облачности и скорости ветра. Ночью, в пасмурную погоду, а также при ветре 12 м/с и более поправка равна нулю.
P - Атмосферное давление - приведенное к уровню моря атмосферное давление.
Po - Атмосферное давление - измеренное на уровне метеостанции атмосферное давление.
Tmin - Минимальная температура - минимум температуры воздуха на высоте 2 м над землей.
Tmax - Максимальная температура - максимум температуры воздуха на высоте 2 м над землей.
R - Количество осадков - Количество выпавших осадков за 3 или 6 часов, мм.
SD - Снежный покров - Высота снежного покрова, см.